WZZ2447 LZIB-LZKZ

Flight info

Callsign WZZ2447
Flight time 0h 32m
Altitude 23000
Route NIT A42 TAKOS
Aircraft A20N/M-SDE1E2E3FGIJ1J4RWXY/LB1

Departure

Time 2026-04-29 13:52
Airport M. R. Štefánik Airport (LZIB)

Arrival

Time 2026-04-29 14:25
Airport Košice International Airport (LZKZ)
Time Latitude Longitude Altitude Speed Heading
2026-04-29 13:26 48.16892 17.20057 436 ft 0 kts 314°
2026-04-29 13:27 48.17035 17.20269 435 ft 0 kts 313°
2026-04-29 13:41 48.17025 17.20284 435 ft 2 kts 313°
2026-04-29 13:42 48.17015 17.20300 435 ft 2 kts 313°
2026-04-29 13:42 48.17008 17.20311 435 ft 2 kts 313°
2026-04-29 13:42 48.17004 17.20330 435 ft 2 kts 259°
2026-04-29 13:42 48.17008 17.20345 435 ft 0 kts 227°
2026-04-29 13:43 48.17014 17.20353 435 ft 1 kts 222°
2026-04-29 13:47 48.16994 17.20326 435 ft 9 kts 223°
2026-04-29 13:47 48.16939 17.20247 434 ft 12 kts 224°
2026-04-29 13:47 48.16885 17.20168 435 ft 7 kts 223°
2026-04-29 13:48 48.16842 17.20163 435 ft 7 kts 143°
2026-04-29 13:48 48.16802 17.20238 433 ft 10 kts 130°
2026-04-29 13:48 48.16745 17.20330 432 ft 13 kts 135°
2026-04-29 13:48 48.16690 17.20361 432 ft 8 kts 213°
2026-04-29 13:49 48.16644 17.20295 432 ft 9 kts 229°
2026-04-29 13:49 48.16590 17.20223 432 ft 11 kts 219°
2026-04-29 13:49 48.16527 17.20145 432 ft 11 kts 220°
2026-04-29 13:49 48.16462 17.20060 432 ft 13 kts 221°
2026-04-29 13:50 48.16391 17.19965 432 ft 13 kts 221°
2026-04-29 13:50 48.16323 17.19876 434 ft 12 kts 221°
2026-04-29 13:50 48.16253 17.19800 435 ft 10 kts 203°
2026-04-29 13:50 48.16190 17.19802 435 ft 9 kts 147°
2026-04-29 13:51 48.16140 17.19877 435 ft 11 kts 130°
2026-04-29 13:51 48.16106 17.19947 434 ft 5 kts 104°
2026-04-29 13:51 48.16115 17.19989 433 ft 4 kts 48°
2026-04-29 13:51 48.16145 17.20026 432 ft 20 kts 40°
2026-04-29 13:52 48.16404 17.20397 432 ft 88 kts 44°
2026-04-29 13:52 48.17013 17.21255 432 ft 151 kts 40°
2026-04-29 13:52 48.17789 17.22426 966 ft 161 kts 43°
2026-04-29 13:52 48.18598 17.23718 1336 ft 185 kts 45°
2026-04-29 13:53 48.19484 17.25311 1833 ft 211 kts 48°
2026-04-29 13:53 48.20475 17.27285 1593 ft 266 kts 58°
2026-04-29 13:53 48.21323 17.29816 2319 ft 283 kts 64°
2026-04-29 13:53 48.21958 17.32439 3280 ft 285 kts 68°
2026-04-29 13:54 48.22636 17.35479 2881 ft 336 kts 68°
2026-04-29 13:54 48.23167 17.38839 3800 ft 340 kts 76°
2026-04-29 13:54 48.23593 17.42362 4753 ft 342 kts 78°
2026-04-29 13:54 48.23946 17.45892 5535 ft 349 kts 81°
2026-04-29 13:55 48.24099 17.48827 8611 ft 280 kts 82°
2026-04-29 13:55 48.24285 17.51568 9902 ft 269 kts 78°
2026-04-29 13:55 48.24567 17.54408 10469 ft 284 kts 77°
2026-04-29 13:55 48.24875 17.57409 11002 ft 300 kts 77°
2026-04-29 13:56 48.25188 17.60600 11541 ft 315 kts 77°
2026-04-29 13:56 48.25488 17.63842 12284 ft 322 kts 78°
2026-04-29 13:56 48.25789 17.67204 13103 ft 326 kts 78°
2026-04-29 13:56 48.26084 17.70561 13872 ft 331 kts 78°
2026-04-29 13:57 48.26385 17.74008 14649 ft 335 kts 78°
2026-04-29 13:57 48.26685 17.77456 15393 ft 339 kts 78°
2026-04-29 13:57 48.26992 17.80986 16116 ft 344 kts 78°
2026-04-29 13:57 48.27299 17.84524 16796 ft 349 kts 78°
2026-04-29 13:58 48.27613 17.88160 17493 ft 353 kts 78°
2026-04-29 13:58 48.27927 17.91818 18159 ft 358 kts 78°
2026-04-29 13:58 48.28237 17.95480 18835 ft 361 kts 78°
2026-04-29 13:58 48.28559 17.99269 19456 ft 366 kts 78°
2026-04-29 13:59 48.28882 18.03034 20035 ft 371 kts 77°
2026-04-29 13:59 48.29327 18.06842 20606 ft 374 kts 72°
2026-04-29 13:59 48.29909 18.10676 21176 ft 379 kts 71°
2026-04-29 13:59 48.30520 18.14532 21756 ft 384 kts 71°
2026-04-29 14:00 48.31144 18.18457 22338 ft 388 kts 71°
2026-04-29 14:00 48.31764 18.22389 22891 ft 393 kts 71°
2026-04-29 14:00 48.32390 18.26373 23186 ft 395 kts 71°
2026-04-29 14:00 48.33017 18.30405 23203 ft 395 kts 71°
2026-04-29 14:01 48.33631 18.34376 23208 ft 394 kts 71°
2026-04-29 14:01 48.34254 18.38402 23221 ft 395 kts 71°
2026-04-29 14:01 48.34873 18.42422 23200 ft 395 kts 71°
2026-04-29 14:01 48.35490 18.46428 23209 ft 395 kts 71°
2026-04-29 14:02 48.36105 18.50428 23205 ft 395 kts 71°
2026-04-29 14:02 48.36727 18.54491 23201 ft 396 kts 71°
2026-04-29 14:02 48.37333 18.58463 23210 ft 396 kts 71°
2026-04-29 14:02 48.37954 18.62525 23199 ft 396 kts 71°
2026-04-29 14:03 48.38566 18.66544 23202 ft 396 kts 72°
2026-04-29 14:03 48.39179 18.70568 23196 ft 397 kts 72°
2026-04-29 14:03 48.39790 18.74605 23209 ft 397 kts 72°
2026-04-29 14:03 48.40398 18.78643 23193 ft 396 kts 72°
2026-04-29 14:04 48.41003 18.82659 23197 ft 396 kts 71°
2026-04-29 14:04 48.41611 18.86691 23198 ft 396 kts 71°
2026-04-29 14:04 48.42218 18.90736 23197 ft 396 kts 71°
2026-04-29 14:04 48.42819 18.94752 23201 ft 396 kts 71°
2026-04-29 14:05 48.43421 18.98769 23202 ft 396 kts 72°
2026-04-29 14:05 48.44029 19.02856 23201 ft 397 kts 71°
2026-04-29 14:05 48.44621 19.06859 23203 ft 397 kts 71°
2026-04-29 14:05 48.45222 19.10932 23200 ft 398 kts 72°
2026-04-29 14:06 48.45736 19.15012 23188 ft 399 kts 74°
2026-04-29 14:06 48.46217 19.19121 23190 ft 400 kts 75°
2026-04-29 14:06 48.46692 19.23245 22964 ft 399 kts 75°
2026-04-29 14:06 48.47158 19.27329 22692 ft 397 kts 74°
2026-04-29 14:07 48.47625 19.31401 22417 ft 394 kts 74°
2026-04-29 14:07 48.48090 19.35451 22102 ft 391 kts 74°
2026-04-29 14:07 48.48553 19.39466 21746 ft 389 kts 74°
2026-04-29 14:07 48.49011 19.43438 21378 ft 386 kts 74°
2026-04-29 14:08 48.49462 19.47393 21022 ft 383 kts 74°
2026-04-29 14:08 48.49908 19.51313 20656 ft 381 kts 74°
2026-04-29 14:08 48.50349 19.55206 20302 ft 378 kts 74°
2026-04-29 14:08 48.50791 19.59101 19908 ft 376 kts 74°
2026-04-29 14:09 48.51226 19.62958 19550 ft 373 kts 74°
2026-04-29 14:09 48.51662 19.66814 19153 ft 371 kts 75°
2026-04-29 14:09 48.52088 19.70603 18773 ft 368 kts 75°
2026-04-29 14:09 48.52509 19.74359 18393 ft 366 kts 75°
2026-04-29 14:10 48.52935 19.78163 18012 ft 363 kts 75°
2026-04-29 14:10 48.53345 19.81843 17671 ft 359 kts 76°
2026-04-29 14:10 48.53753 19.85517 17318 ft 356 kts 76°
2026-04-29 14:10 48.54160 19.89197 16950 ft 354 kts 76°
2026-04-29 14:11 48.54564 19.92857 16517 ft 353 kts 76°
2026-04-29 14:11 48.54964 19.96471 16112 ft 351 kts 76°
2026-04-29 14:11 48.55362 20.00085 15751 ft 348 kts 76°
2026-04-29 14:11 48.55758 20.03695 15407 ft 345 kts 76°
2026-04-29 14:12 48.56144 20.07230 15051 ft 342 kts 76°
2026-04-29 14:12 48.56524 20.10718 14686 ft 340 kts 77°
2026-04-29 14:12 48.56908 20.14247 14326 ft 338 kts 77°
2026-04-29 14:12 48.57278 20.17687 13992 ft 334 kts 77°
2026-04-29 14:13 48.57652 20.21161 13634 ft 332 kts 77°
2026-04-29 14:13 48.57994 20.24579 13284 ft 331 kts 81°
2026-04-29 14:13 48.58061 20.28027 12948 ft 330 kts 91°
2026-04-29 14:13 48.57816 20.31446 12611 ft 328 kts 96°
2026-04-29 14:14 48.57470 20.34830 12261 ft 326 kts 97°
2026-04-29 14:14 48.57108 20.38202 11941 ft 324 kts 97°
2026-04-29 14:14 48.56757 20.41511 11580 ft 322 kts 97°
2026-04-29 14:14 48.56408 20.44852 11227 ft 319 kts 97°
2026-04-29 14:15 48.56067 20.48165 10889 ft 317 kts 97°
2026-04-29 14:15 48.55734 20.51416 10550 ft 314 kts 97°
2026-04-29 14:15 48.55404 20.54637 10211 ft 311 kts 97°
2026-04-29 14:15 48.55074 20.57867 10020 ft 302 kts 97°
2026-04-29 14:16 48.54756 20.60950 9693 ft 299 kts 97°
2026-04-29 14:16 48.54438 20.64019 9358 ft 296 kts 96°
2026-04-29 14:16 48.54121 20.67086 9032 ft 292 kts 97°
2026-04-29 14:16 48.53811 20.70085 8694 ft 289 kts 97°
2026-04-29 14:17 48.53504 20.73042 8319 ft 288 kts 96°
2026-04-29 14:17 48.53196 20.75999 7932 ft 286 kts 96°
2026-04-29 14:17 48.52888 20.78963 7561 ft 283 kts 96°
2026-04-29 14:17 48.52583 20.81875 7253 ft 279 kts 96°
2026-04-29 14:18 48.52282 20.84731 6865 ft 278 kts 95°
2026-04-29 14:18 48.51984 20.87571 6548 ft 273 kts 95°
2026-04-29 14:18 48.51688 20.90412 6127 ft 272 kts 96°
2026-04-29 14:18 48.51390 20.93219 5779 ft 269 kts 95°
2026-04-29 14:19 48.51098 20.95979 5383 ft 269 kts 95°
2026-04-29 14:19 48.50806 20.98734 5015 ft 267 kts 95°
2026-04-29 14:19 48.50510 21.01495 4606 ft 266 kts 95°
2026-04-29 14:19 48.50170 21.04209 4303 ft 263 kts 98°
2026-04-29 14:20 48.49770 21.06868 3949 ft 261 kts 98°
2026-04-29 14:20 48.49362 21.09532 3635 ft 257 kts 98°
2026-04-29 14:20 48.48967 21.12083 3603 ft 242 kts 98°
2026-04-29 14:20 48.48725 21.14476 3566 ft 221 kts 79°
2026-04-29 14:21 48.49229 21.16470 3524 ft 199 kts 45°
2026-04-29 14:21 48.50291 21.17810 3547 ft 197 kts 31°
2026-04-29 14:21 48.51493 21.18737 3430 ft 196 kts 20°
2026-04-29 14:21 48.52807 21.19381 3170 ft 196 kts 15°
2026-04-29 14:22 48.54125 21.19874 2906 ft 195 kts 13°
2026-04-29 14:22 48.55428 21.20321 2648 ft 193 kts 13°
2026-04-29 14:22 48.56738 21.20771 2387 ft 191 kts 13°
2026-04-29 14:22 48.58003 21.21211 2223 ft 180 kts 13°
2026-04-29 14:23 48.59175 21.21622 1941 ft 166 kts 13°
2026-04-29 14:23 48.60247 21.21997 1721 ft 151 kts 13°
2026-04-29 14:23 48.61232 21.22342 1494 ft 139 kts 12°
2026-04-29 14:23 48.62129 21.22658 1278 ft 127 kts 12°
2026-04-29 14:24 48.62966 21.22942 1091 ft 119 kts 12°
2026-04-29 14:24 48.63767 21.23226 999 ft 119 kts 12°
2026-04-29 14:24 48.64568 21.23505 837 ft 118 kts 13°
2026-04-29 14:24 48.65360 21.23791 750 ft 113 kts 12°
2026-04-29 14:25 48.66022 21.24022 744 ft 74 kts 13°
2026-04-29 14:25 48.66407 21.24153 746 ft 44 kts 12°
2026-04-29 14:25 48.66613 21.24221 746 ft 17 kts 13°
2026-04-29 14:25 48.66751 21.24269 749 ft 20 kts 12°
2026-04-29 14:26 48.66886 21.24315 748 ft 19 kts 12°
2026-04-29 14:26 48.67009 21.24355 750 ft 16 kts 12°
2026-04-29 14:26 48.67123 21.24394 750 ft 16 kts 12°
2026-04-29 14:26 48.67220 21.24384 752 ft 13 kts 314°
2026-04-29 14:27 48.67250 21.24259 752 ft 12 kts 279°
2026-04-29 14:27 48.67228 21.24174 754 ft 6 kts 205°
2026-04-29 14:27 48.67185 21.24155 754 ft 6 kts 210°
2026-04-29 14:28 48.67188 21.23997 754 ft 8 kts 285°
2026-04-29 14:28 48.67200 21.23922 755 ft 5 kts 299°
2026-04-29 14:28 48.67231 21.23911 756 ft 5 kts 12°
2026-04-29 14:28 48.67252 21.23918 755 ft 0 kts 12°
2026-04-29 14:29 48.67253 21.23918 755 ft 0 kts 12°